KE0SWK-13 Weather Reports


time (UTC)temp
C
wind
direction
speed
KPH
gust
KPH
rain 1hr
cm
rain 24hr
cm
rain mn
cm
humidity
%
barometer
mb
20260505124526 9 205 6.4 8.0 0.03 1.09 1.09 84 1012.7
20260505123521 9 246 8.0 11.3 0.03 1.09 1.09 84 1012.1
20260505122523 9 187 8.0 12.9 0.03 1.09 1.09 85 1011.7
20260505121533 9 114 6.4 14.5 0.03 1.09 1.09 87 1011.5
20260505120523 8 216 4.8 11.3 0.03 1.09 1.09 88 1011.1
20260505115529 8 84 9.7 20.9 0.03 1.09 1.09 88 1010.5
20260505114537 8 284 8.0 11.3 0.00 1.07 1.07 88 1010.0
20260505113526 9 188 8.0 12.9 0.00 1.07 1.07 88 1010.1
20260505112551 9 235 11.3 14.5 0.00 1.07 1.07 88 1009.7
20260505111520 9 234 8.0 16.1 0.00 1.07 1.07 89 1010.7
20260505110526 9 11 4.8 9.7 0.00 1.07 1.07 89 1010.9
20260505101523 9 274 1.6 8.0 0.03 1.07 1.07 91 1011.0
20260505100523 9 354 1.6 8.0 0.18 1.07 1.07 91 1010.5
20260505095539 9 132 8.0 12.9 0.30 1.07 1.07 90 1009.9
20260505094521 9 99 11.3 17.7 0.41 1.07 1.07 89 1008.5
20260505093550 9 110 16.1 33.8 0.43 1.07 1.07 89 1007.9
20260505092520 9 41 16.1 25.7 0.53 1.07 1.07 89 1008.5
20260505091526 9 123 11.3 19.3 0.79 1.04 1.04 89 1008.6
20260505090534 10 60 16.1 22.5 0.89 0.89 0.89 89 1008.6
20260505085523 10 141 22.5 32.2 0.76 0.76 0.76 88 1008.8
20260505084528 10 307 17.7 25.7 0.66 0.66 0.66 87 1009.5
20260505083520 11 295 17.7 25.7 0.64 0.64 0.64 88 1010.1
20260505082523 11 267 17.7 29.0 0.53 0.53 0.53 87 1010.1
20260505081530 12 265 20.9 29.0 0.25 0.25 0.25 81 1009.7
20260505080519 15 263 20.9 29.0 0.00 0.00 0.00 63 1008.5
20260505075525 17 268 16.1 24.1 0.00 0.00 0.00 55 1007.6
20260505074522 18 141 11.3 17.7 0.00 0.00 0.00 59 1006.4
20260505073540 19 301 4.8 6.4 0.00 0.00 0.00 67 1006.1
20260505072518 19 245 1.6 4.8 0.00 0.00 0.00 67 1005.7
20260505071547 19 113 0.0 3.2 0.00 0.00 0.00 66 1005.5
20260505070522 19 114 1.6 3.2 0.00 0.00 0.00 66 1005.5
20260505065524 19 137 1.6 3.2 0.00 0.00 0.00 65 1005.5
20260505064538 20 140 1.6 3.2 0.00 0.00 0.00 65 1005.7
20260505063524 19 125 0.0 3.2 0.00 0.00 0.00 65 1005.9
20260505062530 20 70 1.6 3.2 0.00 0.00 0.00 65 1006.1
20260505061522 20 304 0.0 3.2 0.00 0.00 0.00 64 1006.1
20260505060547 20 126 0.0 3.2 0.00 0.00 0.00 64 1006.3
20260505055531 20 214 1.6 3.2 0.00 0.00 0.00 64 1006.1
20260505054521 20 359 1.6 4.8 0.00 0.00 0.00 64 1006.0
20260505053527 20 147 1.6 4.8 0.00 0.00 0.00 64 1005.5
20260505052542 20 183 1.6 4.8 0.00 0.00 0.00 64 1005.1
20260505051522 20 106 3.2 4.8 0.00 0.00 0.00 64 1005.1
20260505050520 20 327 1.6 4.8 0.00 0.00 0.00 64 1005.2
20260505041546 20 90 0.0 3.2 0.00 0.00 0.00 62 1006.4
20260505040531 21 186 1.6 4.8 0.00 0.00 0.00 62 1006.4
20260505035541 21 71 0.0 3.2 0.00 0.00 0.00 61 1006.4
20260505034528 21 129 1.6 4.8 0.00 0.00 0.00 60 1006.5
20260505033533 21 201 1.6 3.2 0.00 0.00 0.00 60 1006.5
20260505032542 21 298 3.2 6.4 0.00 0.00 0.00 59 1006.4
20260505031609 21 247 1.6 3.2 0.00 0.00 0.00 58 1006.3
20260505030543 22 178 3.2 4.8 0.00 0.00 0.00 58 1006.3
20260505025524 22 93 3.2 3.2 0.00 0.00 0.00 58 1006.3
20260505024540 22 50 3.2 6.4 0.00 0.00 0.00 57 1006.1
20260505023519 22 113 1.6 4.8 0.00 0.00 0.00 57 1006.0
20260505022525 22 346 3.2 6.4 0.00 0.00 0.00 56 1005.8
20260505021526 22 331 3.2 6.4 0.00 0.00 0.00 57 1005.6
20260505020521 23 133 3.2 6.4 0.00 0.00 0.00 56 1005.5
20260505015523 23 85 3.2 4.8 0.00 0.00 0.00 55 1005.4
20260505014553 23 98 3.2 6.4 0.00 0.00 0.00 54 1005.2
20260505013523 23 170 3.2 6.4 0.00 0.00 0.00 54 1005.0
20260505012529 23 140 3.2 6.4 0.00 0.00 0.00 54 1004.8
20260505011537 23 56 3.2 6.4 0.00 0.00 0.00 53 1004.7
20260505010527 23 16 4.8 6.4 0.00 0.00 0.00 54 1004.7
20260505005530 24 144 3.2 6.4 0.00 0.00 0.00 54 1004.6
20260505004520 24 4 3.2 6.4 0.00 0.00 0.00 53 1004.5
20260505003526 25 359 3.2 4.8 0.00 0.00 0.00 53 1004.4
20260505002521 25 3 3.2 6.4 0.00 0.00 0.00 52 1004.4
20260505001522 25 101 4.8 8.0 0.00 0.00 0.00 51 1004.3
20260505000519 26 96 1.6 4.8 0.00 0.00 0.00 50 1004.3
20260504235527 26 98 3.2 4.8 0.00 0.00 0.00 49 1004.2
20260504234523 26 117 3.2 6.4 0.00 0.00 0.00 48 1004.3
20260504233525 26 140 3.2 6.4 0.00 0.00 0.00 47 1004.3
20260504232532 27 75 4.8 8.0 0.00 0.00 0.00 46 1004.3
20260504231525 26 105 3.2 6.4 0.00 0.00 0.00 47 1004.3
20260504230531 26 108 3.2 4.8 0.00 0.00 0.00 47 1004.3
20260504225520 26 336 3.2 6.4 0.00 0.00 0.00 47 1004.3
20260504224527 26 189 4.8 6.4 0.00 0.00 0.00 46 1004.2
20260504223535 27 91 4.8 8.0 0.00 0.00 0.00 44 1004.4
20260504222545 27 123 4.8 11.3 0.00 0.00 0.00 44 1004.3
20260504221548 27 47 4.8 9.7 0.00 0.00 0.00 43 1004.2
20260504220522 27 110 4.8 9.7 0.00 0.00 0.00 42 1004.4
20260504215523 28 121 4.8 9.7 0.00 0.00 0.00 42 1004.5
20260504214519 28 84 6.4 9.7 0.00 0.00 0.00 42 1004.5
20260504213519 28 103 6.4 9.7 0.00 0.00 0.00 42 1004.6
20260504212525 28 228 6.4 9.7 0.00 0.00 0.00 42 1004.6
20260504211525 28 356 6.4 9.7 0.00 0.00 0.00 41 1004.5
20260504210520 28 73 4.8 8.0 0.00 0.00 0.00 42 1004.6
20260504205522 28 129 8.0 14.5 0.00 0.00 0.00 41 1004.6
20260504204532 28 289 6.4 8.0 0.00 0.00 0.00 41 1004.8
20260504203522 28 46 6.4 9.7 0.00 0.00 0.00 41 1004.9
20260504202529 28 91 6.4 9.7 0.00 0.00 0.00 41 1005.0
20260504201535 28 341 6.4 9.7 0.00 0.00 0.00 41 1005.1
20260504200524 28 103 6.4 12.9 0.00 0.00 0.00 42 1005.2
20260504195529 28 152 6.4 8.0 0.00 0.00 0.00 41 1005.3
20260504194542 28 128 6.4 8.0 0.00 0.00 0.00 41 1005.3
20260504193525 27 99 6.4 11.3 0.00 0.00 0.00 41 1005.4
20260504192519 29 92 6.4 12.9 0.00 0.00 0.00 41 1005.4
20260504191521 28 118 6.4 8.0 0.00 0.00 0.00 41 1005.4
20260504190527 28 67 6.4 8.0 0.00 0.00 0.00 40 1005.5
20260504185545 28 212 6.4 11.3 0.00 0.00 0.00 41 1005.5
20260504184522 28 195 6.4 8.0 0.00 0.00 0.00 41 1005.5
20260504183522 28 170 4.8 9.7 0.00 0.00 0.00 41 1005.7
20260504182530 28 166 8.0 14.5 0.00 0.00 0.00 42 1005.8
20260504181519 28 85 6.4 8.0 0.00 0.00 0.00 43 1005.8
20260504180530 27 92 4.8 9.7 0.00 0.00 0.00 41 1005.9
20260504175519 27 89 6.4 8.0 0.00 0.00 0.00 42 1006.0
20260504174525 27 236 4.8 9.7 0.00 0.00 0.00 43 1006.1
20260504173658 27 57 8.0 9.7 0.00 0.00 0.00 42 1006.1
20260504172522 28 44 4.8 8.0 0.00 0.00 0.00 43 1006.2
20260504171527 27 226 4.8 6.4 0.00 0.00 0.00 44 1006.1
20260504170520 26 33 6.4 9.7 0.00 0.00 0.00 43 1006.3
20260504151019 23 9.7 9.7 0.00 0.00 0.00 45 1007.1
20260504150106 23 284 8.0 11.3 0.00 0.00 0.00 44 1006.9
20260504141023 23 173 6.4 12.9 0.00 0.00 0.00 43 1007.0